Weather History for KOCW - November, 2013

Change the Weather History Date:

Sunday, November 3, 2013

  Actual Average (KEWN) Record (KEWN)
Temperature  
Mean Temperature 54 °F 59 °F  
Max Temperature 63 °F 70 °F 87 °F (1972)
Min Temperature 45 °F 47 °F 30 °F (1963)
Degree Days  
Heating Degree Days 11 7  
Month to date heating degree days 21  
Since 1 July heating degree days 138  
Cooling Degree Days 0 1  
Month to date cooling degree days 3  
Year to date cooling degree days 1888  
Growing Degree Days 4 (Base 50)    
Moisture  
Dew Point 42 °F    
Average Humidity 66    
Maximum Humidity 86    
Minimum Humidity 36    
Precipitation  
Precipitation 0.00 in 0.11 in 1.20 in (1971)
Month to date precipitation 0.32  
Year to date precipitation 46.27  
Snow  
Snow 0.00 in - - ()
Month to date snowfall  
Since 1 July snowfall  
Snow Depth -    
Sea Level Pressure  
Sea Level Pressure 30.13 in    
Wind  
Wind Speed 6 mph (NNW)    
Max Wind Speed 13 mph    
Max Gust Speed 18 mph    
Visibility 10 miles    
Events      
T = Trace of Precipitation, MM = Missing Value Source: NWS Daily Summary

Daily Weather History Graph

Daily Weather History Graph

Search for Another Location

Airport or City:

Trip Planner

Search our weather history database for the weather conditions in past years. The results will help you decide how hot, cold, wet, or windy it might be!

Date:

Astronomy

Nov. 03, 2013 Rise Set
Actual Time 6:32 AM EST 5:10 PM EST
Civil Twilight 6:05 AM EST 5:37 PM EST
Nautical Twilight 5:35 AM EST 6:07 PM EST
Astronomical Twilight 5:05 AM EST 6:37 PM EST
Moon 6:33 AM EST (11/3) 5:25 PM EST (11/3)
Length of Visible Light 11h 31m
Length of Day
10h 38m
New Moon, 0% of the Moon is Illuminated
Nov 3
New Moon
Nov 10
First Quarter
Nov 17
Full
Nov 25
Last Quarter
Dec 2
New

Hourly Weather History & Observations

Time (EST) Temp. Windchill Dew Point Humidity Pressure Visibility Wind Dir Wind Speed Gust Speed Precip Events Conditions
12:15 AM 58.1 °F - 49.1 °F 72% 29.90 in 10.0 mi WNW 3.5 mph - N/A   Mostly Cloudy
12:35 AM 58.5 °F - 48.6 °F 70% 29.90 in 10.0 mi WNW 6.9 mph - N/A   Overcast
12:55 AM 58.1 °F - 49.1 °F 72% 29.91 in 10.0 mi NW 6.9 mph - N/A   Overcast
1:15 AM 58.1 °F - 50.5 °F 76% 29.91 in 10.0 mi NNW 9.2 mph - N/A   Overcast
1:35 AM 58.1 °F - 50.4 °F 75% 29.92 in 10.0 mi NNW 9.2 mph - N/A   Overcast
1:55 AM 58.1 °F - 50.5 °F 76% 29.93 in 10.0 mi NNW 5.8 mph - N/A   Scattered Clouds
1:15 AM 55.4 °F - 48.6 °F 78% 29.93 in 10.0 mi North 6.9 mph - N/A   Scattered Clouds
1:35 AM 53.2 °F - 46.9 °F 79% 29.93 in 10.0 mi North 4.6 mph - N/A   Scattered Clouds
1:55 AM 52.7 °F - 46.8 °F 80% 29.93 in 10.0 mi NNW 6.9 mph - N/A   Clear
2:15 AM 52.7 °F - 46.4 °F 79% 29.94 in 10.0 mi NNW 5.8 mph - N/A   Clear
2:35 AM 52.7 °F - 46.8 °F 80% 29.95 in 10.0 mi North 3.5 mph - N/A   Clear
2:55 AM 52.7 °F - 47.3 °F 82% 29.95 in 10.0 mi Calm Calm - N/A   Clear
3:15 AM 52.7 °F - 47.7 °F 83% 29.96 in 10.0 mi Calm Calm - N/A   Clear
3:35 AM 52.7 °F - 48.2 °F 85% 29.97 in 10.0 mi NNW 3.5 mph - N/A   Clear
3:55 AM 50.2 °F - 45.9 °F 85% 29.98 in 10.0 mi Calm Calm - N/A   Clear
4:15 AM 50.2 °F - 45.9 °F 85% 29.99 in 10.0 mi Calm Calm - N/A   Clear
4:35 AM 50.2 °F - 45.9 °F 85% 30.00 in 10.0 mi NW 3.5 mph - N/A   Clear
4:55 AM 48.4 °F - 44.2 °F 86% 30.01 in 10.0 mi NNW 3.5 mph - N/A   Clear
5:15 AM 48.0 °F - 43.9 °F 86% 30.01 in 10.0 mi Calm Calm - N/A   Clear
5:35 AM 46.4 °F - 42.3 °F 85% 30.02 in 10.0 mi Calm Calm - N/A   Clear
5:55 AM 47.3 °F - 43.2 °F 86% 30.03 in 10.0 mi NW 3.5 mph - N/A   Clear
6:15 AM 46.8 °F - 42.8 °F 86% 30.04 in 10.0 mi NW 3.5 mph - N/A   Clear
6:35 AM 46.4 °F 45.2 °F 42.3 °F 85% 30.05 in 10.0 mi NW 3.5 mph - N/A   Clear
6:55 AM 46.2 °F - 42.1 °F 85% 30.07 in 10.0 mi Calm Calm - N/A   Clear
7:15 AM 46.4 °F - 42.3 °F 85% 30.08 in 10.0 mi Calm Calm - N/A   Clear
7:35 AM 47.7 °F - 42.8 °F 83% 30.09 in 10.0 mi NNW 4.6 mph - N/A   Clear
7:55 AM 50.2 °F - 44.2 °F 80% 30.11 in 10.0 mi NW 4.6 mph - N/A   Clear
8:15 AM 52.7 °F - 46.0 °F 78% 30.12 in 10.0 mi NW 5.8 mph - N/A   Clear
8:35 AM 52.7 °F - 44.4 °F 73% 30.13 in 10.0 mi NNW 6.9 mph - N/A   Clear
8:55 AM 53.2 °F - 43.5 °F 70% 30.13 in 10.0 mi NNW 9.2 mph - N/A   Clear
9:15 AM 58.1 °F - 45.7 °F 63% 30.14 in 10.0 mi NNW 6.9 mph - N/A   Clear
9:35 AM 58.1 °F - 42.1 °F 55% 30.14 in 10.0 mi NNW 11.5 mph 16.1 mph N/A   Clear
9:55 AM 58.1 °F - 40.6 °F 52% 30.15 in 10.0 mi North 10.4 mph - N/A   Clear
10:15 AM 58.5 °F - 39.2 °F 49% 30.15 in 10.0 mi NNW 10.4 mph - N/A   Clear
10:35 AM 60.4 °F - 39.6 °F 46% 30.16 in 10.0 mi North 10.4 mph - N/A   Clear
10:55 AM 60.4 °F - 39.4 °F 46% 30.16 in 10.0 mi NNW 11.5 mph - N/A   Clear
11:15 AM 60.4 °F - 38.5 °F 44% 30.16 in 10.0 mi NNE 10.4 mph 16.1 mph N/A   Clear
11:35 AM 60.4 °F - 37.9 °F 43% 30.16 in 10.0 mi North 12.7 mph - N/A   Clear
11:55 AM 60.4 °F - 37.4 °F 42% 30.15 in 10.0 mi NNW 11.5 mph - N/A   Clear
12:15 PM 60.4 °F - 37.4 °F 42% 30.15 in 10.0 mi North 10.4 mph - N/A   Clear
12:35 PM 60.8 °F - 37.2 °F 42% 30.14 in 10.0 mi North 8.1 mph - N/A   Clear
12:55 PM 63.0 °F - 38.7 °F 41% 30.15 in 10.0 mi North 10.4 mph - N/A   Scattered Clouds
1:15 PM 63.0 °F - 37.4 °F 39% 30.15 in 10.0 mi NW 8.1 mph - N/A   Scattered Clouds
1:35 PM 63.0 °F - 37.2 °F 38% 30.15 in 10.0 mi NW 8.1 mph - N/A   Scattered Clouds
1:55 PM 63.0 °F - 36.7 °F 38% 30.16 in 10.0 mi North 12.7 mph 18.4 mph N/A   Scattered Clouds
2:15 PM 61.9 °F - 36.5 °F 39% 30.16 in 10.0 mi NNW 9.2 mph - N/A   Scattered Clouds
2:35 PM 63.0 °F - 36.7 °F 38% 30.17 in 10.0 mi North 9.2 mph - N/A   Scattered Clouds
2:55 PM 63.0 °F - 35.4 °F 36% 30.17 in 10.0 mi North 6.9 mph - N/A   Scattered Clouds
3:15 PM 63.0 °F - 36.9 °F 38% 30.18 in 10.0 mi North 10.4 mph - N/A   Scattered Clouds
3:35 PM 62.6 °F - 36.3 °F 38% 30.19 in 10.0 mi North 12.7 mph 16.1 mph N/A   Scattered Clouds
3:55 PM 60.4 °F - 36.3 °F 41% 30.19 in 10.0 mi North 9.2 mph - N/A   Clear
4:15 PM 60.4 °F - 37.4 °F 42% 30.20 in 10.0 mi North 9.2 mph - N/A   Clear
4:35 PM 59.7 °F - 37.9 °F 44% 30.21 in 10.0 mi North 5.8 mph - N/A   Clear
4:55 PM 58.1 °F - 43.2 °F 58% 30.22 in 10.0 mi North 3.5 mph - N/A   Scattered Clouds
5:15 PM 55.4 °F - 43.0 °F 63% 30.23 in 10.0 mi NNW 3.5 mph - N/A   Clear
5:35 PM 54.0 °F - 43.0 °F 66% 30.24 in 10.0 mi North 3.5 mph - N/A   Clear
5:55 PM 52.7 °F - 43.2 °F 70% 30.24 in 10.0 mi North 3.5 mph - N/A   Clear
6:15 PM 52.7 °F - 44.1 °F 72% 30.25 in 10.0 mi Calm Calm - N/A   Clear
6:35 PM 52.7 °F - 44.6 °F 74% 30.26 in 10.0 mi Calm Calm - N/A   Clear
6:55 PM 50.2 °F - 43.2 °F 77% 30.27 in 10.0 mi Calm Calm - N/A   Clear
7:15 PM 49.8 °F - 43.5 °F 79% 30.28 in 10.0 mi Calm Calm - N/A   Clear
7:35 PM 46.0 °F 43.9 °F 41.9 °F 85% 30.29 in 10.0 mi North 4.6 mph - N/A   Clear
7:55 PM 52.3 °F - 43.3 °F 71% 30.30 in 10.0 mi North 9.2 mph - N/A   Clear
8:15 PM 51.8 °F - 42.1 °F 69% 30.32 in 10.0 mi NNE 6.9 mph - N/A   Clear
8:35 PM 50.2 °F - 41.0 °F 71% 30.32 in 10.0 mi NNE 4.6 mph - N/A   Clear
8:55 PM 48.0 °F - 39.4 °F 72% 30.34 in 10.0 mi NNE 4.6 mph - N/A   Clear
9:15 PM 47.7 °F - 39.2 °F 72% 30.35 in 10.0 mi NNE 5.8 mph - N/A   Clear
9:35 PM 48.2 °F - 39.2 °F 71% 30.35 in 10.0 mi NNE 5.8 mph - N/A   Clear
9:55 PM 47.7 °F - 38.5 °F 70% 30.35 in 10.0 mi NNE 4.6 mph - N/A   Clear
10:15 PM 46.8 °F - 38.3 °F 72% 30.35 in 10.0 mi NNE 3.5 mph - N/A   Clear
10:35 PM 45.9 °F - 38.5 °F 75% 30.36 in 10.0 mi Calm Calm - N/A   Clear
10:55 PM 45.1 °F 42.8 °F 38.8 °F 79% 30.36 in 10.0 mi NNE 4.6 mph - N/A   Clear